Regional Weather Roundup
Issued by NWS

Home | Current Version | Previous Version | Graphics & Text | Print | Product List | Glossary On
Versions: 1 2 3 4 5 6 7 8 9 10 11 12 13 14 15 16 17 18 19 20 21 22 23 24 25 26 27 28 29 30 31 32 33 34 35 36 37 38 39 40 41 42 43 44 45 46 47 48 49 50
000
ASUS43 KBIS 082310
RWRND

NORTH DAKOTA REGIONAL WEATHER ROUNDUP
NATIONAL WEATHER SERVICE BISMARCK ND
500 PM CST THU DEC 08 2016

NOTE: "FAIR" INDICATES FEW OR NO CLOUDS BELOW 12,000 FEET WITH NO
SIGNIFICANT WEATHER AND/OR OBSTRUCTIONS TO VISIBILITY.


NDZ001>003-009>011-017-090000-
NORTHWEST NORTH DAKOTA

CITY           SKY/WX    TMP DP  RH WIND       PRES   REMARKS
WILLISTON      CLEAR     -4 -12  68 W8        30.63S WCI -19
MINOT          MOCLDY     0  -7  72 W14       30.59F WCI -19
MINOT AFB      CLOUDY    -1  -7  74 W10       30.59S WCI -17
$$

NDZ018>021-031>035-040>046-090000-
SOUTHWEST NORTH DAKOTA

CITY           SKY/WX    TMP DP  RH WIND       PRES   REMARKS
BISMARCK       CLOUDY     2  -3  80 NW10      30.64R WCI -14
DICKINSON      CLEAR     -4 -10  75 NW10      30.51F WCI -21
GARRISON         N/A     -3  -9  75 NW8       30.59F WCI -18
HETTINGER ARPT CLOUDY     0  -5  79 NW7       30.54F WCI -13
$$

NDZ004>008-012>016-024-026-027-054-090000-
NORTHEAST NORTH DAKOTA

CITY           SKY/WX    TMP DP  RH WIND       PRES   REMARKS
GRAND FORKS    FLURRIES  12   7  80 NW10      30.58R WCI  -1
GRND FRKS AFB  CLOUDY     9   3  78 NW10      30.59R WCI  -6
DEVILS LAKE    MOCLDY     0  -4  83 NW16      30.57S WCI -20
$$

NDZ022-023-025-028>030-036>039-047>053-090000-
SOUTHEAST NORTH DAKOTA

CITY           SKY/WX    TMP DP  RH WIND       PRES   REMARKS
FARGO          LGT SNOW  14   8  77 NW13      30.58S WCI   0
JAMESTOWN      CLEAR      0  -5  79 NW14      30.59S WCI -19
$$





USA.gov is the U.S. government's official web portal to all federal, state and local government web resources and services.